Location: Unspecified
(49.9820°N, 20.4363°E)
Time: 00:46:31
(UTC+02:00)

ISS - Pass Details

Date: 14 July 2018
Orbit: 402 x 408 km, 51.6° (Epoch: 16 July)

Event Time Altitude Azimuth Distance (km) Brightness Sun altitude
Exits shadow 01:07:44 35° 115° (ESE) 680 -2.9 -18.1°
Drops below altitude 10° 01:10:07 10° 79° (E) 1,471 -0.8 -18.1°
Sets 01:12:16 0° 73° (ENE) 2,335 0.4 -18.0°
